Weather History for Bigfork, MN

Change the Weather History Date:

Tuesday, February 5, 2013

  Actual Average (KGPZ) Record (KGPZ)
Temperature  
Mean Temperature 8 °F -  
Max Temperature 15 °F 21 °F 51 °F (1991)
Min Temperature 1 °F -2 °F -38 °F (1923)
Degree Days  
Heating Degree Days 57    
Moisture  
Dew Point 2 °F    
Average Humidity 71    
Maximum Humidity 92    
Minimum Humidity 49    
Precipitation  
Precipitation 0.02 in - - ()
Sea Level Pressure  
Sea Level Pressure 29.81 in    
Wind  
Wind Speed 4 mph (NNW)    
Max Wind Speed 9 mph    
Max Gust Speed -    
Visibility 8 miles    
Events Snow    
Averages and records for this station are not official NWS values.
T = Trace of Precipitation, MM = Missing Value Source: NWS Daily Summary

Daily Weather History Graph

Daily Weather History Graph

Search for Another Location

Airport:

Trip Planner

Search our weather history database for the weather conditions in past years. The results will help you decide how hot, cold, wet, or windy it might be!

Date:

Astronomy

Feb. 05, 2013 Rise Set
Actual Time 7:35 AM CST 5:22 PM CST
Civil Twilight 7:03 AM CST 5:54 PM CST
Nautical Twilight 6:26 AM CST 6:31 PM CST
Astronomical Twilight 5:50 AM CST 7:07 PM CST
Moon 3:26 AM CST (2/5) 12:31 PM CST (2/5)
Length of Visible Light 10h 51m
Length of Day
9h 46m
Waning Crescent, 26% of the Moon is Illuminated
Feb 5
Waning Crescent
Feb 10
New
Feb 17
First Quarter
Feb 25
Full
Mar 4
Last Quarter

Hourly Weather History & Observations

Time (CST) Temp. Windchill Dew Point Humidity Pressure Visibility Wind Dir Wind Speed Gust Speed Precip Events Conditions
12:13 AM 10.4 °F -2.4 °F 5.0 °F 79% 29.56 in 3.0 mi South 9.2 mph - N/A Snow Light Snow
12:33 AM 10.4 °F -0.4 °F 6.8 °F 85% 29.56 in 2.0 mi South 6.9 mph - N/A Snow Light Snow
12:53 AM 10.4 °F -0.4 °F 6.8 °F 85% 29.56 in 2.0 mi SSE 6.9 mph - N/A Snow Light Snow
1:14 AM 10.4 °F 4.0 °F 6.8 °F 85% 29.55 in 1.5 mi SSE 3.5 mph - N/A Snow Light Snow
1:33 AM 10.4 °F 2.2 °F 6.8 °F 85% 29.56 in 1.8 mi South 4.6 mph - N/A Snow Light Snow
1:53 AM 10.4 °F 0.8 °F 6.8 °F 85% 29.56 in 2.0 mi South 5.8 mph - N/A Snow Light Snow
2:13 AM 10.4 °F 2.2 °F 8.6 °F 92% 29.55 in 1.2 mi South 4.6 mph - N/A Snow Light Snow
2:33 AM 10.4 °F 4.0 °F 8.6 °F 92% 29.55 in 1.8 mi SSE 3.5 mph - 0.01 in Snow Light Snow
2:53 AM 10.4 °F - 8.6 °F 92% 29.55 in 4.0 mi Calm Calm - N/A Snow Light Snow
3:13 AM 10.4 °F - 8.6 °F 92% 29.56 in 7.0 mi Calm Calm - N/A Snow Light Snow
3:33 AM 10.4 °F - 8.6 °F 92% 29.56 in 2.5 mi Calm Calm - 0.01 in Snow Light Snow
3:53 AM 10.4 °F - 8.6 °F 92% 29.56 in 10.0 mi Calm Calm - N/A Snow Light Snow
4:13 AM 10.4 °F - 8.6 °F 92% 29.58 in 10.0 mi Calm Calm - N/A Snow Light Snow
4:33 AM 10.4 °F - 8.6 °F 92% 29.59 in 7.0 mi Calm Calm - N/A Snow Light Snow
4:53 AM 10.4 °F - 6.8 °F 85% 29.60 in 7.0 mi Calm Calm - N/A Snow Light Snow
5:13 AM 10.4 °F - 6.8 °F 85% 29.61 in 7.0 mi Calm Calm - N/A Snow Light Snow
5:33 AM 8.6 °F 2.0 °F 5.0 °F 85% 29.63 in 10.0 mi NNW 3.5 mph - N/A Snow Light Snow
5:53 AM 6.8 °F -2.0 °F 3.2 °F 85% 29.64 in 10.0 mi NNW 4.6 mph - N/A Snow Light Snow
6:13 AM 6.8 °F -3.5 °F 1.4 °F 79% 29.66 in 4.0 mi NNW 5.8 mph - N/A Snow Light Snow
6:33 AM 5.0 °F -4.1 °F 1.4 °F 85% 29.68 in 4.0 mi NNW 4.6 mph - N/A Snow Light Snow
6:53 AM 3.2 °F -7.8 °F -0.4 °F 85% 29.69 in 4.0 mi NNW 5.8 mph - N/A Snow Light Snow
7:13 AM 3.2 °F -6.2 °F -2.2 °F 78% 29.71 in 3.0 mi NNW 4.6 mph - N/A Snow Light Snow
7:33 AM 1.4 °F -6.2 °F -2.2 °F 85% 29.73 in 4.0 mi North 3.5 mph - N/A Snow Light Snow
7:53 AM 1.4 °F -11.3 °F -4.0 °F 78% 29.74 in 5.0 mi North 6.9 mph - N/A Snow Light Snow
8:13 AM 1.4 °F -6.2 °F -4.0 °F 78% 29.76 in 5.0 mi NNW 3.5 mph - N/A Snow Light Snow
8:53 AM 1.4 °F -8.3 °F -2.2 °F 85% 29.79 in 5.0 mi North 4.6 mph - N/A Snow Light Snow
9:13 AM 3.2 °F -7.8 °F -0.4 °F 85% 29.80 in 10.0 mi NNW 5.8 mph - N/A Snow Light Snow
9:33 AM 3.2 °F -7.8 °F -0.4 °F 85% 29.82 in 10.0 mi North 5.8 mph - N/A Snow Light Snow
9:53 AM 5.0 °F -4.1 °F 1.4 °F 85% 29.82 in 10.0 mi North 4.6 mph - N/A Snow Light Snow
10:13 AM 6.8 °F -2.0 °F 1.4 °F 79% 29.84 in 10.0 mi NNW 4.6 mph - N/A Snow Light Snow
10:33 AM 6.8 °F -4.8 °F 1.4 °F 79% 29.85 in 10.0 mi NNW 6.9 mph - N/A Snow Light Snow
10:53 AM 8.6 °F 0.1 °F 1.4 °F 73% 29.86 in 10.0 mi NNW 4.6 mph - N/A Snow Light Snow
11:13 AM 8.6 °F 0.1 °F 1.4 °F 73% 29.88 in 10.0 mi NNW 4.6 mph - N/A   Clear
11:33 AM 10.4 °F - 1.4 °F 67% 29.88 in 10.0 mi Calm Calm - N/A   Clear
11:53 AM 10.4 °F 0.8 °F 1.4 °F 67% 29.89 in 10.0 mi North 5.8 mph - N/A   Clear
12:13 PM 12.2 °F 4.3 °F 3.2 °F 67% 29.89 in 10.0 mi North 4.6 mph - N/A   Clear
12:33 PM 12.2 °F 2.9 °F 1.4 °F 62% 29.89 in 10.0 mi NNW 5.8 mph - N/A   Clear
12:53 PM 12.2 °F 4.3 °F 1.4 °F 62% 29.89 in 10.0 mi NW 4.6 mph - N/A   Clear
1:13 PM 14.0 °F 5.1 °F 1.4 °F 57% 29.89 in 10.0 mi North 5.8 mph - N/A   Clear
1:33 PM 14.0 °F 6.5 °F 1.4 °F 57% 29.89 in 10.0 mi North 4.6 mph - N/A   Clear
1:53 PM 15.8 °F 5.1 °F 1.4 °F 53% 29.90 in 10.0 mi North 8.1 mph - N/A   Clear
2:13 PM 15.8 °F 5.1 °F 1.4 °F 53% 29.91 in 10.0 mi WNW 8.1 mph - N/A   Clear
2:33 PM 15.8 °F 7.2 °F -0.4 °F 49% 29.91 in 10.0 mi NNW 5.8 mph - N/A   Clear
2:53 PM 15.8 °F 7.2 °F -0.4 °F 49% 29.92 in 10.0 mi NNW 5.8 mph - N/A   Clear
3:13 PM 15.8 °F 8.6 °F 1.4 °F 53% 29.93 in 10.0 mi NW 4.6 mph - N/A   Clear
3:33 PM 15.8 °F 8.6 °F 1.4 °F 53% 29.93 in 10.0 mi WNW 4.6 mph - N/A   Clear
3:53 PM 15.8 °F 6.1 °F 1.4 °F 53% 29.94 in 10.0 mi NW 6.9 mph - N/A   Clear
4:13 PM 15.8 °F 10.2 °F 1.4 °F 53% 29.93 in 10.0 mi NW 3.5 mph - N/A   Scattered Clouds
4:33 PM 15.8 °F 8.6 °F -0.4 °F 49% 29.94 in 10.0 mi NW 4.6 mph - N/A   Overcast
4:53 PM 14.0 °F 5.1 °F 1.4 °F 57% 29.95 in 10.0 mi WNW 5.8 mph - N/A   Mostly Cloudy
5:13 PM 12.2 °F 4.3 °F -0.4 °F 57% 29.96 in 10.0 mi WNW 4.6 mph - N/A   Overcast
5:53 PM 10.4 °F - -2.2 °F 57% 29.96 in 10.0 mi Calm Calm - N/A   Overcast
6:33 PM 10.4 °F 4.0 °F -2.2 °F 57% 29.96 in 10.0 mi North 3.5 mph - N/A   Overcast
6:53 PM 10.4 °F 4.0 °F -2.2 °F 57% 29.97 in 10.0 mi NNW 3.5 mph - N/A   Overcast
7:13 PM 10.4 °F - -4.0 °F 52% 29.97 in 10.0 mi Calm Calm - N/A   Overcast
7:33 PM 10.4 °F - -4.0 °F 52% 29.97 in 10.0 mi Calm Calm - N/A   Overcast
7:53 PM 10.4 °F - -4.0 °F 52% 29.97 in 10.0 mi Calm Calm - N/A   Overcast
8:13 PM 8.6 °F - -4.0 °F 57% 29.98 in 10.0 mi Calm Calm - N/A   Overcast
8:33 PM 10.4 °F - -2.2 °F 57% 29.98 in 10.0 mi Calm Calm - N/A   Overcast
8:53 PM 8.6 °F - -2.2 °F 62% 29.98 in 10.0 mi Calm Calm - N/A   Overcast
9:13 PM 8.6 °F - -2.2 °F 62% 29.98 in 10.0 mi Calm Calm - N/A   Overcast
9:33 PM 8.6 °F - -2.2 °F 62% 29.98 in 10.0 mi Calm Calm - N/A   Overcast
9:53 PM 8.6 °F - -0.4 °F 67% 29.98 in 10.0 mi Calm Calm - N/A   Overcast
10:13 PM 6.8 °F - -0.4 °F 72% 29.98 in 10.0 mi Calm Calm - N/A   Overcast
10:33 PM 8.6 °F - -0.4 °F 67% 29.99 in 10.0 mi Calm Calm - N/A   Overcast
10:53 PM 8.6 °F - -0.4 °F 67% 29.99 in 10.0 mi Calm Calm - N/A   Overcast
11:13 PM 8.6 °F - -2.2 °F 62% 29.99 in 10.0 mi Calm Calm - N/A   Overcast
11:33 PM 8.6 °F - -0.4 °F 67% 29.99 in 10.0 mi Calm Calm - N/A   Overcast
11:53 PM 8.6 °F - -0.4 °F 67% 29.99 in 10.0 mi Calm Calm - N/A   Overcast